Location: Bonn
(50.7330°N, 7.1000°E)
Time: 21:28:10
(UTC+02:00)

Daily predictions for brighter satellites

Satellite Brightness Start Highest point End
(mag) Time Altitude Azimuth Time Altitude Azimuth Time Altitude Azimuth
Cosmos 1464 Rocket 4.3 22:00:35 10° SSE 22:06:46 55° E 22:12:58 10° NNE
Meteor 1-19 Rocket 4.5 22:03:35 10° SSW 22:09:31 86° WNW 22:15:28 10° NNE
Cosmos 1814 Rocket 4.0 22:04:30 10° SSW 22:09:46 76° ESE 22:15:07 10° NNE
Cosmos 1125 Rocket 3.7 22:10:06 10° NNW 22:15:21 65° ENE 22:20:32 10° SE
Cosmos 1025 Rocket 4.3 22:13:34 10° SE 22:17:03 24° E 22:20:35 10° NE
SPOT 1/Viking Rocket 4.0 22:13:19 10° SE 22:18:15 48° ENE 22:23:13 10° N
H-2A R/B 2.0 22:16:34 10° SSE 22:21:34 89° WSW 22:26:43 10° NNW
Cosmos 2333 Rocket 2.9 22:16:25 10° NNW 22:21:54 45° NE 22:27:22 10° ESE
SL-16 R/B 4.3 22:18:21 10° N 22:22:15 18° NNE 22:26:09 10° ENE
BREEZE-M DEB 4.5 22:20:30 10° W 22:24:11 52° SSW 22:26:56 10° ESE
COSMOS 2428 2.9 22:19:17 10° NNW 22:24:58 66° ENE 22:30:36 10° SE
Cosmos 1455 Rocket 3.6 22:22:29 10° NNW 22:26:48 58° W 22:31:06 10° S
Landsat 7 4.3 22:26:49 10° SE 22:31:23 48° ENE 22:35:59 10° N
Cosmos 1356 3.4 22:28:14 10° S 22:31:42 81° E 22:35:12 10° NNE
Iridium 90 4.0 22:29:54 11° SSE 22:31:46 35° E 22:33:47 10° NNE
Meteor 1-23 Rocket 4.2 22:26:50 10° S 22:32:20 66° E 22:37:52 10° NNE
Okean 2 4.0 22:29:38 10° SSE 22:33:32 39° E 22:37:27 10° NNE
USA 245 3.6 22:31:06 10° SSE 22:34:58 89° WSW 22:39:55 10° NNW
Aureole 2 Rocket 4.3 22:32:56 10° NW 22:35:10 20° WSW 22:37:19 10° SSW
Cosmos 1833 4.2 22:30:50 10° SSW 22:36:32 73° ESE 22:42:12 10° NNE
Helios 1A 3.0 22:34:31 10° SSE 22:38:40 73° ENE 22:42:50 10° N
Meteor 2-4 Rocket 4.0 22:34:24 10° SSW 22:39:53 71° WNW 22:45:34 10° N
DMSP B5D2-2 4.4 22:34:51 10° NNE 22:40:02 51° E 22:45:09 10° S
ARGOS 3.8 22:34:54 10° S 22:40:11 54° W 22:45:31 10° NNW
Cosmos 2084 Rocket 4.4 22:36:47 10° NW 22:40:36 37° NNE 22:44:19 10° ESE
Cosmos 2297 Rocket 4.1 22:42:54 10° ESE 22:44:17 11° E 22:45:41 10° E
Cosmos 2322 Rocket 4.2 22:40:22 10° NW 22:44:32 22° WSW 22:48:40 10° SSW
ERBS 3.5 22:41:26 10° NW 22:44:38 39° NNE 22:47:51 10° E
Cosmos 2084 4.2 22:42:30 10° WSW 22:46:37 54° NW 22:50:34 10° NE
Cosmos 2322 4.2 22:41:04 10° NW 22:46:42 58° WSW 22:52:17 10° S
Cosmos 1356 Rocket 3.9 22:42:48 10° SSE 22:46:52 44° E 22:50:59 10° NNE
Cosmos 2227 Rocket 4.0 22:45:24 10° ESE 22:47:55 13° E 22:50:30 10° ENE
BREEZE-M R/B 1.9 22:45:22 10° WSW 22:48:42 63° S 22:51:08 10° E
Cosmos 2237 Rocket 3.0 22:43:57 10° NNW 22:49:23 42° NE 22:54:39 11° ESE
Cosmos 540 Rocket 3.4 22:44:15 10° SSW 22:49:24 76° ESE 22:54:36 10° NNE
Spot 1 4.3 22:45:59 13° SE 22:49:29 52° ENE 22:53:29 10° N
USA 234 3.3 22:43:37 10° ENE 22:50:08 62° SE 22:56:38 10° SW
Terra 2.3 22:46:02 12° SE 22:50:11 49° ENE 22:54:47 10° N
SL-23 DEB 4.1 22:48:07 10° W 22:51:40 81° N 22:57:19 10° E
SPOT 5 2.8 22:49:27 11° SSE 22:53:47 86° WSW 22:58:31 10° NNW
SL-16 R/B 4.5 22:51:30 10° WNW 22:55:07 17° W 22:58:42 10° SW
Helios 1B rocket 2.9 22:51:41 10° NNE 22:55:39 43° E 22:59:08 13° S
CZ-4C R/B 3.0 22:53:40 10° NW 23:00:39 74° SW 23:07:35 14° SSE
Cosmos 1066 Rocket 4.3 22:57:25 10° S 23:02:35 54° E 23:07:57 10° NNE
SJ 16-02 2.4 22:59:07 10° NW 23:03:17 40° WSW 23:07:25 10° S
Cosmos 1092 Rocket 4.1 23:00:26 10° N 23:06:49 80° E 23:12:29 14° SSE
Lacrosse 5 rocket 3.3 23:04:28 10° W 23:07:32 19° SW 23:10:27 10° S
Nadezhda 4 Rocket 4.2 23:01:18 10° NNW 23:07:36 74° W 23:13:54 10° S
Cosmos 2228 3.9 23:04:12 10° N 23:08:11 36° ENE 23:11:07 16° SE
Cosmos 841 Rocket 4.5 23:04:57 10° SW 23:10:03 50° WNW 23:15:14 10° NNE
IGS 5A 3.4 23:09:41 16° SSE 23:12:58 86° ENE 23:17:09 10° NNW
NOSS 0 Rocket 4.0 23:11:26 10° NNW 23:17:43 83° ENE 23:22:40 17° SSE
Cosmos 1953 4.2 23:15:20 10° NNE 23:18:11 18° ENE 23:20:37 12° ESE
Cosmos 1726 Rocket 3.8 23:14:38 10° N 23:19:01 59° ENE 23:22:03 19° SSE
Cosmos 2219 3.5 23:15:01 10° S 23:20:32 50° ESE 23:26:06 10° NE
Abrixas rocket 2.2 23:17:59 10° W 23:21:10 57° S 23:23:42 15° ESE
CENTAUR R/B 2.9 23:15:03 10° SW 23:21:17 72° NW 23:28:35 10° NE
Okean 1-7 Rocket 3.8 23:18:42 16° S 23:22:12 59° E 23:26:42 10° NNE
Meteor 1-22 Rocket 4.1 23:19:31 10° N 23:24:56 79° ENE 23:28:52 18° SSE
Tiangong 2 3.1 23:24:50 10° SW 23:26:31 15° SSW 23:26:31 15° SSW
SAR-Lupe-4 4.4 23:27:07 20° SE 23:29:07 38° ENE 23:32:29 10° N
CZ-2C R/B 3.4 23:24:02 10° NNE 23:29:19 40° E 23:32:51 19° SSE
Cosmos 1544 3.4 23:27:45 10° NNW 23:31:27 62° W 23:33:58 19° S
ISS -3.7 23:28:58 10° W 23:32:15 75° N 23:35:32 10° E
Cosmos 2360 Rocket 4.2 23:28:59 10° NW 23:33:01 20° W 23:37:03 10° SSW
Cosmos 2026 Rocket 4.0 23:28:05 10° N 23:34:18 83° E 23:38:54 19° SSE
Cosmos 2219 Rocket 2.6 23:31:04 10° NW 23:36:32 56° WSW 23:40:33 18° S
Cosmos 2058 Rocket 3.2 23:33:37 10° N 23:38:08 66° ENE 23:40:54 23° SSE
Cosmos 2279 Rocket 4.2 23:39:38 19° SSE 23:44:00 55° E 23:50:03 10° NNE
Cosmos 1655 Rocket 4.1 23:40:51 10° N 23:47:16 71° ENE 23:51:40 21° SSE
CARTOSAT-1 4.4 23:44:36 16° SSW 23:47:43 45° W 23:51:53 10° NNW
Cosmos 1766 3.4 23:45:01 10° NNW 23:49:00 70° W 23:51:20 24° S
Cosmos 1538 Rocket 4.4 23:47:42 22° SSE 23:50:47 46° ESE 23:55:49 10° NE
CZ-2C R/B 3.4 23:47:47 19° S 23:51:44 71° WSW 23:57:28 10° NNW
Cosmos 1025 Rocket 4.2 23:50:19 10° SW 23:54:26 41° WNW 23:58:38 10° N
